Home   Weather   Guildford   Past weeks

Flag for United Kingdom Past Weather in Guildford, England, United Kingdom — Yesterday and Last 2 Weeks

48 °F

Passing clouds.

Feels Like: 47 °F
Forecast: 42 / 55 °F
Wind: 3 mph from North

Location: Farnborough Airport

Current Time: Oct 21, 2016 at 11:00:53 PM

Latest Report: Oct 21, 2016 at 8:50 PM

Visibility: N/A

Pressure: 30.09 "Hg

Humidity: 87%

Dew Point: 45 °F

Location of GuildfordLocation

Past Weather in Guildford — Graph


Guildford Temperature Yesterday

Maximum temperature yesterday: 57 °F (at 1:20 PM)
Minimum temperature yesterday: 46 °F (at 6:50 AM)
Average temperature yesterday: 52 °F

High & Low Weather Summary for the Past Weeks

High63 °F (Oct 16, 2:50 PM)100% (Oct 10, 6:50 AM)30.36 "Hg (Oct 10, 6:50 AM)
Low34 °F (Oct 11, 6:50 AM)55% (Oct 10, 1:20 PM)29.65 "Hg (Oct 14, 3:50 PM)
Average53 °F79%30.08 "Hg
* Reported Oct 6 8:20 PM — Oct 21 8:50 PM, Guildford, Weather by CustomWeather, © 2016

Note: Actual official high and low records may vary slightly from our data, if they occured in-between our weather recording intervals... More about our weather records


Guildford Weather History for the Previous 24 Hours

Scroll right to see more
Time TempWeatherWind HumidityBarometerVisibility
8:50 PM
Fri, Oct 21
48 °FPassing clouds.3 mph87%30.09 "HgN/A
8:20 PM50 °FPassing clouds.5 mph82%30.09 "HgN/A
7:50 PM50 °FPassing clouds.5 mph88%30.09 "HgN/A
7:20 PM50 °FPassing clouds.3 mph82%30.09 "HgN/A
6:50 PM52 °FPassing clouds.6 mph82%30.09 "HgN/A
6:20 PM52 °FPassing clouds.6 mph77%30.09 "HgN/A
5:50 PM52 °FPassing clouds.6 mph77%30.09 "HgN/A
5:20 PM54 °FPassing clouds.7 mph72%30.09 "HgN/A
4:50 PM54 °FPassing clouds.7 mph72%30.09 "HgN/A
4:20 PM54 °FPassing clouds.10 mph72%30.09 "HgN/A
3:50 PM54 °FPassing clouds.8 mph72%30.09 "HgN/A
3:20 PM54 °FPassing clouds.9 mph72%30.09 "HgN/A
2:50 PM55 °FPassing clouds.8 mph72%30.09 "HgN/A
2:20 PM54 °FPassing clouds.8 mph72%30.09 "HgN/A
1:50 PM54 °FPassing clouds.8 mph72%30.12 "HgN/A
1:20 PM52 °FScattered clouds.8 mph77%30.12 "HgN/A
12:50 PM52 °FScattered clouds.9 mph77%30.12 "HgN/A
12:20 PM52 °FScattered clouds.8 mph77%30.12 "HgN/A
11:50 AM50 °FScattered clouds.9 mph82%30.15 "HgN/A
11:20 AM50 °FScattered clouds.8 mph82%30.15 "HgN/A
10:50 AM48 °FPartly sunny.8 mph87%30.15 "HgN/A
10:20 AM48 °FPartly sunny.8 mph87%30.15 "HgN/A
9:50 AM46 °FPartly sunny.9 mph93%30.15 "HgN/A
9:20 AM46 °FPartly sunny.8 mph93%30.15 "HgN/A
8:50 AM46 °FPartly sunny.9 mph93%30.15 "HgN/A
8:20 AM46 °FPartly sunny.9 mph93%30.15 "HgN/A
7:50 AM46 °FPartly sunny.8 mph93%30.15 "HgN/A
7:20 AM46 °FPassing clouds.9 mph93%30.12 "HgN/A
6:50 AM46 °FPassing clouds.10 mph93%30.12 "HgN/A
Weather by CustomWeather, © 2016

See weather overviewHow to use our weather pages